This demonstration page uses our WeatherBlox Daily Observations layout. Learn more.

Left ArrowRight Arrow

38.89511, -77.03637

Hourly Observations for June 8, 2022

Temp ( °F °C ) Dew Point ( °F °C ) Humidity (%) Winds ( mph kmh ) Pressure ( in mb ) Visibility ( mi km ) Precip ( " mm )
12:52 am 00:52 Partly Cloudy 71 21.7 66 18.9 84 84 S 9 15 29.89 1012 10 16 0.00 0.00
1:52 am 01:52 Mostly Cloudy 71 21.7 66 18.9 84 84 Calm 29.89 1012 10 16 0.00 0.00
2:52 am 02:52 Mostly Cloudy 70 21.1 67 19.4 90 90 Calm 29.89 1012 10 16 0.00 0.00
3:52 am 03:52 Mostly Cloudy 70 21.1 66 18.9 87 87 Calm 29.88 1012 10 16 0.00 0.00
4:52 am 04:52 Mostly Cloudy 70 21.1 66 18.9 87 87 SW 5 7 29.89 1012 10 16 0.00 0.00
5:27 am 05:27 Mostly Cloudy 70 21.1 66 18.9 87 87 SSE 7 11 29.90 1012 10 16 0.00 0.00
5:52 am 05:52 Mostly Cloudy 70 21.1 66 18.9 87 87 SSE 7 11 29.90 1012 10 16 0.00 0.00
6:52 am 06:52 Mostly Cloudy 70 21.1 66 18.9 87 87 SW 5 7 29.92 1013 10 16 0.00 0.00
7:52 am 07:52 Mostly Cloudy 73 22.8 68 20 84 84 SW 5 7 29.92 1013 10 16 0.00 0.00
8:52 am 08:52 Partly Cloudy 75 23.9 67 19.4 76 76 S 3 6 29.93 1014 10 16 0.00 0.00
9:52 am 09:52 Partly Cloudy 77 25 68 20 74 74 NE 5 7 29.93 1014 10 16 0.00 0.00
10:52 am 10:52 Partly Cloudy 82 27.8 67 19.4 60 60 N 9 15 29.93 1014 10 16 0.00 0.00
11:52 am 11:52 Partly Cloudy 83 28.3 65 18.3 55 55 N 8 13 29.93 1013 10 16 0.00 0.00
12:52 pm 12:52 Partly Cloudy 84 28.9 66 18.9 55 55 NNE 6 9 29.91 1013 10 16 0.00 0.00
1:52 pm 13:52 Mostly Cloudy 85 29.4 66 18.9 53 53 SSE 5 7 29.88 1012 10 16 0.00 0.00
2:52 pm 14:52 Mostly Cloudy 87 30.6 68 20 53 53 S 8 13 29.85 1011 10 16 0.00 0.00
3:52 pm 15:52 Mostly Cloudy 86 30 64 17.8 48 48 SSE 7 11 29.84 1010 10 16 0.00 0.00
4:52 pm 16:52 Mostly Cloudy 87 30.6 66 18.9 50 50 S 7 11 29.81 1010 10 16 0.00 0.00
5:52 pm 17:52 Mostly Cloudy 86 30 70 21.1 59 59 SSE 9 15 29.80 1009 10 16 0.00 0.00
6:52 pm 18:52 Mostly Cloudy 84 28.9 69 20.6 61 61 SSE 12 19 29.80 1009 10 16 0.00 0.00
7:05 pm 19:05 Mostly Cloudy with Light Rain 82 27.8 70 21.1 67 67 S 16 26 29.80 1009 10 16 0.00 0.00
7:27 pm 19:27 Mostly Cloudy with Light Rain 79 26.1 71 21.7 77 77 S 15 24 29.80 1009 6 10 0.01 0.25
7:31 pm 19:31 Mostly Cloudy with Nearby Thunderstorms 78 25.6 70 21.1 76 76 SSW 13 20 29.80 1009 7 11 0.02 0.51
7:52 pm 19:52 Mostly Cloudy with Light Rain 76 24.4 69 20.6 79 79 SSW 9 15 29.80 1009 10 16 0.02 0.51
8:52 pm 20:52 Cloudy with Light Rain 76 24.4 70 21.1 82 82 SE 8 13 29.80 1009 10 16 0.00 0.00
9:52 pm 21:52 Mostly Cloudy 74 23.3 66 18.9 76 76 ESE 3 6 29.78 1009 10 16 0.00 0.00
10:30 pm 22:30 Mostly Cloudy with Nearby Thunderstorms 74 23.3 67 19.4 79 79 S 8 13 29.79 1009 10 16 0.00 0.00
10:41 pm 22:41 Mostly Cloudy with Light Rain 73 22.8 67 19.4 81 81 S 6 9 29.79 1009 10 16 0.00 0.00
10:52 pm 22:52 Mostly Cloudy 73 22.8 67 19.4 81 81 SSW 6 9 29.78 1009 10 16 0.00 0.00
11:52 pm 23:52 Mostly Cloudy 73 22.8 68 20 84 84 SSW 5 7 29.74 1007 10 16 0.00 0.00

Powered by AerisWeather